Tracking 30970 objects as of 3-Jul-2025
HD Live streaming from Space Station
objects crossing your sky now

STARLINK-31557

Track STARLINK-31557 now!
10-day predictions
STARLINK-31557 is classified as:


NORAD ID: 59357
Int'l Code: 2024-060K
Perigee: 489.5 km
Apogee: 491.0 km
Inclination: 43.0 °
Period: 94.3 minutes
Semi major axis: 6861 km
RCS: Unknown
Launch date: March 31, 2024
Source: United States (US)
Launch site: AIR FORCE EASTERN TEST RANGE (AFETR)
Your satellite tracking list
Your tracking list is empty




NASA's NSSDC Master Catalog

Two Line Element Set (TLE):
1 59357U 24060K   25183.80779567  .00003032  00000-0  11971-3 0  9999
2 59357  43.0012 226.9591 0001108 278.6859  81.3867 15.27569736 71899
Source of the keplerian elements: AFSPC